FW7253 Weather Reports


time (UTC)temp
F
wind
direction
speed
knots
gust
knots
rain 1hr
in
rain 24hr
in
rain mn
in
humidity
%
barometer
mb
20260502231543 46 0 0.0 0.9 0.00 0.03 0.00 86 1009.6
20260502231035 47 0 0.0 0.0 0.00 0.03 0.00 85 1009.7
20260502230534 47 0 0.0 0.9 0.00 0.03 0.00 85 1009.7
20260502230041 47 0 0.0 1.7 0.00 0.03 0.00 84 1009.7
20260502225534 48 339 0.0 1.7 0.00 0.03 0.00 83 1009.6
20260502225033 47 326 0.0 1.7 0.00 0.03 0.00 83 1009.9
20260502224535 48 325 0.0 0.9 0.00 0.03 0.00 84 1009.8
20260502224034 48 322 0.0 1.7 0.00 0.03 0.00 84 1009.8
20260502223534 48 319 0.0 1.7 0.00 0.03 0.00 84 1009.8
20260502223047 48 319 0.9 1.7 0.00 0.03 0.00 86 1010.0
20260502222533 48 307 0.0 0.9 0.00 0.03 0.00 85 1009.9
20260502222035 48 0 0.0 0.0 0.00 0.03 0.00 86 1009.9
20260502221544 48 0 0.0 0.0 0.00 0.03 0.00 86 1009.8
20260502221033 48 0 0.0 0.9 0.00 0.03 0.00 86 1009.8
20260502220533 48 0 0.0 0.9 0.00 0.03 0.00 85 1009.8
20260502220050 48 0 0.0 0.0 0.00 0.03 0.00 86 1009.9
20260502215533 48 0 0.0 0.0 0.00 0.03 0.03 85 1009.9
20260502215032 48 0 0.0 0.0 0.00 0.03 0.03 86 1009.9
20260502214547 48 0 0.0 0.9 0.00 0.03 0.03 87 1009.8
20260502214034 49 0 0.0 0.9 0.00 0.03 0.03 87 1009.8
20260502213534 49 0 0.0 0.0 0.00 0.03 0.03 86 1009.8
20260502213047 48 0 0.0 0.0 0.00 0.03 0.03 86 1009.9
20260502212534 49 0 0.0 0.9 0.00 0.03 0.03 86 1009.8
20260502212034 48 0 0.0 0.9 0.00 0.03 0.03 86 1009.8
20260502211546 49 0 0.0 0.9 0.00 0.03 0.03 87 1009.8
20260502211033 49 0 0.0 0.9 0.00 0.03 0.03 85 1009.8
20260502210533 49 334 0.0 0.0 0.00 0.03 0.03 84 1009.9
20260502210038 49 0 0.0 0.0 0.00 0.03 0.03 84 1009.8
20260502205534 49 0 0.0 0.0 0.00 0.03 0.03 82 1009.8
20260502205036 49 0 0.0 0.0 0.00 0.03 0.03 83 1009.7
20260502204545 49 0 0.0 0.0 0.00 0.03 0.03 82 1009.7
20260502204033 49 0 0.0 0.9 0.00 0.03 0.03 82 1009.7
20260502203532 50 0 0.0 4.3 0.00 0.03 0.03 79 1009.8
20260502203049 50 338 1.7 4.3 0.00 0.03 0.03 78 1009.7
20260502202534 50 355 2.6 4.3 0.00 0.03 0.03 79 1009.7
20260502202036 50 4 0.9 2.6 0.00 0.03 0.03 79 1009.8
20260502201539 50 330 0.0 0.9 0.00 0.03 0.03 80 1009.8
20260502201034 50 0 0.0 0.9 0.00 0.03 0.03 80 1009.8
20260502200534 50 0 0.0 0.0 0.00 0.03 0.03 80 1009.8
20260502200042 50 0 0.0 0.0 0.00 0.03 0.03 81 1010.0
20260502195535 50 0 0.0 0.9 0.00 0.03 0.03 82 1010.0
20260502195035 50 0 0.0 0.9 0.00 0.03 0.03 83 1009.9
20260502194545 50 0 0.0 0.0 0.00 0.03 0.03 81 1009.9
20260502194033 50 0 0.0 0.0 0.00 0.03 0.03 82 1009.9
20260502193534 50 0 0.0 0.0 0.00 0.03 0.03 82 1009.9
20260502193048 50 160 0.0 0.0 0.00 0.03 0.03 83 1009.9
20260502192537 50 0 0.0 0.0 0.00 0.03 0.03 84 1009.9
20260502192033 50 0 0.0 0.9 0.00 0.03 0.03 84 1010.0
20260502191546 50 0 0.0 0.9 0.00 0.03 0.03 83 1010.1
20260502191034 50 0 0.0 0.9 0.00 0.03 0.03 83 1010.0
20260502190533 50 229 0.0 0.9 0.00 0.03 0.03 84 1010.0
20260502190058 51 0 0.0 0.9 0.00 0.03 0.03 83 1010.0
20260502185557 51 0 0.0 0.9 0.00 0.03 0.03 81 1010.1
20260502185034 51 0 0.0 1.7 0.00 0.03 0.03 80 1010.0
20260502184549 51 0 0.0 1.7 0.00 0.03 0.03 79 1010.1
20260502184034 51 0 0.0 0.9 0.00 0.03 0.03 78 1010.0
20260502183534 51 0 0.0 1.7 0.00 0.03 0.03 80 1010.0
20260502183041 52 0 0.0 1.7 0.00 0.03 0.03 78 1010.0
20260502182534 52 99 0.0 0.9 0.00 0.03 0.03 79 1010.0
20260502182033 52 0 0.0 1.7 0.00 0.03 0.03 76 1010.1
20260502181545 52 0 0.0 2.6 0.00 0.03 0.03 78 1010.0
20260502181033 52 213 0.0 2.6 0.00 0.03 0.03 76 1010.0
20260502180533 53 224 1.7 2.6 0.00 0.03 0.03 74 1010.1
20260502164033 55 0 0.0 0.9 0.00 0.03 0.03 73 1010.4
20260502163535 55 0 0.0 0.9 0.00 0.03 0.03 72 1010.4
20260502163051 55 307 0.0 0.9 0.00 0.03 0.03 71 1010.4
20260502162533 55 0 0.0 3.5 0.01 0.03 0.03 73 1010.6
20260502162033 54 0 0.0 3.5 0.02 0.03 0.03 71 1010.5
20260502161544 54 336 0.0 2.6 0.03 0.03 0.03 84 1010.7
20260502161033 54 0 0.0 0.9 0.03 0.03 0.03 84 1010.7
20260502160533 54 0 0.0 1.7 0.03 0.03 0.03 83 1010.8
20260502152033 58 291 2.6 7.0 0.00 0.00 0.00 63 1010.9
20260502151542 60 269 2.6 8.7 0.00 0.00 0.00 58 1011.0
20260502151033 61 255 4.3 11.3 0.00 0.00 0.00 54 1011.0
20260502150533 61 233 6.1 11.3 0.00 0.00 0.00 51 1011.0
20260502130533 65 215 4.3 9.6 0.00 0.00 0.00 41 1011.0
20260502123533 65 228 7.0 11.3 0.00 0.00 0.00 40 1011.3
20260502123045 66 215 6.1 9.6 0.00 0.00 0.00 44 1011.4
20260502122534 65 208 7.0 10.4 0.00 0.00 0.00 43 1011.4
20260502122034 64 217 7.8 11.3 0.00 0.00 0.00 43 1011.3
20260502121555 64 236 8.7 13.0 0.00 0.00 0.00 43 1011.4
20260502121037 64 211 7.8 13.0 0.00 0.00 0.00 43 1011.5
20260502120533 64 218 9.6 13.0 0.00 0.00 0.00 41 1011.5
20260502115537 66 239 10.4 13.0 0.00 0.00 0.00 39 1011.6
20260502115034 67 246 9.6 13.0 0.00 0.00 0.00 40 1011.6
20260502114548 66 219 8.7 12.2 0.00 0.00 0.00 39 1011.7
20260502114034 65 209 7.8 11.3 0.00 0.00 0.00 38 1011.6
20260502113535 64 233 7.0 9.6 0.00 0.00 0.00 39 1011.8
20260502113043 64 172 5.2 10.4 0.00 0.00 0.00 39 1011.8
20260502112532 64 232 7.0 10.4 0.00 0.00 0.00 39 1012.0
20260502112033 65 200 5.2 10.4 0.00 0.00 0.00 38 1012.1
20260502111553 65 254 3.5 13.0 0.00 0.00 0.00 40 1011.9
20260502111035 65 120 5.2 13.0 0.00 0.00 0.00 37 1012.1
20260502110534 65 218 7.8 13.0 0.00 0.00 0.00 39 1012.2
20260502110050 64 179 5.2 11.3 0.00 0.00 0.00 38 1012.3
20260502105536 63 215 6.1 11.3 0.00 0.00 0.00 40 1012.3
20260502105033 63 229 7.0 11.3 0.00 0.00 0.00 37 1012.4
20260502104543 63 225 6.1 11.3 0.00 0.00 0.00 37 1012.5
20260502104035 64 223 7.0 13.0 0.00 0.00 0.00 36 1012.6
20260502103533 63 248 7.0 20.0 0.00 0.00 0.00 35 1012.7
20260502103050 64 276 8.7 20.0 0.00 0.00 0.00 33 1012.7
20260502102535 65 225 8.7 20.0 0.00 0.00 0.00 34 1012.5
20260502102034 65 215 8.7 16.5 0.00 0.00 0.00 37 1012.6
20260502101604 65 237 8.7 16.5 0.00 0.00 0.00 37 1012.7
20260502101033 64 226 9.6 13.9 0.00 0.00 0.00 36 1012.7
20260502100533 65 162 7.8 13.9 0.00 0.00 0.00 37 1012.7
20260502091034 63 219 7.0 13.0 0.00 0.00 0.00 43 1012.9
20260502090534 62 240 8.7 12.2 0.00 0.00 0.00 43 1013.0
20260502071033 56 226 6.1 8.7 0.00 0.00 0.00 45 1014.2
20260502070535 55 210 6.1 8.7 0.00 0.00 0.00 46 1014.2
20260502070039 55 212 6.1 8.7 0.00 0.00 0.00 50 1014.3
20260502065533 54 227 6.1 7.8 0.00 0.00 0.00 50 1014.3
20260502065032 54 221 4.3 6.1 0.00 0.00 0.00 53 1014.3
20260502064542 53 224 4.3 7.0 0.00 0.00 0.00 54 1014.3
20260502064033 53 194 3.5 7.0 0.00 0.00 0.00 56 1014.4
20260502063533 52 219 3.5 5.2 0.00 0.00 0.00 57 1014.5
20260502063045 51 226 4.3 5.2 0.00 0.00 0.00 58 1014.6
20260502062534 51 220 3.5 5.2 0.00 0.00 0.00 60 1014.6
20260502062032 51 219 3.5 5.2 0.00 0.00 0.00 62 1014.6
20260502061546 50 239 3.5 5.2 0.00 0.00 0.00 62 1014.7
20260502061032 49 213 3.5 5.2 0.00 0.00 0.00 66 1014.6
20260502060533 49 206 1.7 3.5 0.00 0.00 0.00 67 1014.7
20260502060051 48 213 0.9 2.6 0.00 0.00 0.00 66 1014.8
20260502055533 48 229 0.9 2.6 0.00 0.00 0.00 68 1014.8
20260502055032 48 194 1.7 2.6 0.00 0.00 0.00 68 1014.9
20260502054547 47 212 0.0 0.9 0.00 0.00 0.00 68 1014.7
20260502054033 47 0 0.0 2.6 0.00 0.00 0.00 68 1014.9
20260502053535 47 0 0.9 2.6 0.00 0.00 0.00 68 1015.0
20260502053048 46 134 0.0 1.7 0.00 0.00 0.00 69 1015.0
20260502052533 46 0 0.0 0.9 0.00 0.00 0.00 70 1015.1
20260502052036 45 0 0.0 0.9 0.00 0.00 0.00 72 1015.1
20260502051557 44 0 0.0 0.0 0.00 0.00 0.00 74 1015.1
20260502051032 44 0 0.0 0.0 0.00 0.00 0.00 75 1015.1
20260502050536 43 0 0.0 0.0 0.00 0.00 0.00 75 1015.2
20260502050040 43 0 0.0 0.0 0.00 0.00 0.00 75 1015.2
20260502045535 43 0 0.0 0.0 0.00 0.00 0.00 75 1015.3
20260502045034 43 0 0.0 0.0 0.00 0.00 0.00 75 1015.3
20260502044540 43 0 0.0 0.0 0.00 0.00 0.00 75 1015.3
20260502044034 43 164 0.0 0.0 0.00 0.00 0.00 74 1015.4
20260502043533 43 0 0.0 0.0 0.00 0.00 0.00 74 1015.4
20260502043039 43 0 0.0 0.0 0.00 0.00 0.00 73 1015.3
20260502042533 43 0 0.0 0.0 0.00 0.00 0.00 73 1015.3
20260502042033 43 0 0.0 0.9 0.00 0.00 0.00 74 1015.4
20260502041543 43 0 0.0 0.9 0.00 0.00 0.00 74 1015.5
20260502041033 43 0 0.0 0.0 0.00 0.00 0.00 74 1015.5
20260502040535 43 0 0.0 0.0 0.00 0.00 0.00 74 1015.5
20260502040049 43 0 0.0 0.9 0.00 0.00 0.00 74 1015.6
20260502035533 43 0 0.0 0.9 0.00 0.00 0.00 74 1015.6
20260502035034 43 0 0.0 0.9 0.00 0.00 0.00 74 1015.6
20260502034546 43 0 0.0 0.9 0.00 0.00 0.00 74 1015.7
20260502034033 43 0 0.0 0.9 0.00 0.00 0.00 74 1015.9
20260502033533 43 120 0.0 1.7 0.00 0.00 0.00 73 1015.8
20260502033042 43 0 0.0 1.7 0.00 0.00 0.00 73 1015.9
20260502032533 43 117 0.0 0.9 0.00 0.00 0.00 73 1016.0
20260502032034 44 0 0.0 0.9 0.00 0.00 0.00 73 1016.0
20260502031547 44 0 0.0 3.5 0.00 0.00 0.00 73 1016.2
20260502031033 44 231 0.9 3.5 0.00 0.00 0.00 73 1016.1
20260502030534 44 0 0.9 2.6 0.00 0.00 0.00 73 1016.3
20260502030039 44 134 0.9 2.6 0.00 0.00 0.00 73 1016.4
20260502025534 44 203 0.0 2.6 0.00 0.00 0.00 72 1016.5
20260502025035 44 0 0.0 3.5 0.00 0.00 0.00 72 1016.6
20260502024545 45 199 0.9 3.5 0.00 0.00 0.00 71 1016.5
20260502024033 45 201 0.9 1.7 0.00 0.00 0.00 71 1016.6
20260502023533 45 0 0.0 1.7 0.00 0.00 0.00 71 1016.6
20260502023041 45 147 0.0 1.7 0.00 0.00 0.00 71 1016.6
20260502022533 45 134 0.0 0.9 0.00 0.00 0.00 70 1016.6
20260502022032 45 0 0.0 1.7 0.00 0.00 0.00 70 1016.7
20260502021547 45 0 0.0 1.7 0.00 0.00 0.00 69 1016.8
20260502021034 45 153 0.0 1.7 0.00 0.00 0.00 68 1016.8
20260502020534 46 0 0.0 0.9 0.00 0.00 0.00 68 1016.7
20260502020038 46 0 0.0 1.7 0.00 0.00 0.00 67 1016.8
20260502015535 46 191 0.0 1.7 0.00 0.00 0.00 68 1016.9
20260502015033 46 161 0.0 0.9 0.00 0.00 0.00 68 1017.0
20260502014549 46 0 0.0 1.7 0.00 0.00 0.00 68 1017.0
20260502014033 46 148 0.0 1.7 0.00 0.00 0.00 68 1017.0
20260502013534 45 203 0.9 2.6 0.00 0.00 0.00 68 1017.1
20260502013054 45 204 0.9 2.6 0.00 0.00 0.00 68 1017.2
20260502012533 45 210 0.9 1.7 0.00 0.00 0.00 68 1017.2
20260502012033 45 213 0.9 1.7 0.00 0.00 0.00 68 1017.2
20260502011557 46 216 0.9 1.7 0.00 0.00 0.00 68 1017.2
20260502011032 46 215 0.0 3.5 0.00 0.00 0.00 67 1017.3
20260502010533 46 229 0.9 3.5 0.00 0.00 0.00 67 1017.4
20260502010046 46 232 0.9 3.5 0.00 0.00 0.00 67 1017.5
20260502005533 46 219 0.9 3.5 0.00 0.00 0.00 67 1017.5
20260502005033 47 207 0.9 2.6 0.00 0.00 0.00 67 1017.6
20260502004554 47 224 0.9 2.6 0.00 0.00 0.00 66 1017.6
20260502004033 48 226 0.0 2.6 0.00 0.00 0.00 65 1017.7
20260502003532 48 214 0.9 2.6 0.00 0.00 0.00 64 1017.7
20260502003045 49 243 0.0 2.6 0.00 0.00 0.00 64 1017.8
20260502002532 49 233 0.9 3.5 0.00 0.00 0.00 63 1017.8
20260502002035 49 0 0.0 3.5 0.00 0.00 0.00 63 1017.8
20260502001541 49 171 0.9 3.5 0.00 0.00 0.00 63 1017.8
20260502001033 50 230 0.9 3.5 0.00 0.00 0.00 62 1017.8
20260502000533 50 249 1.7 3.5 0.00 0.00 0.00 62 1017.9
20260502000100 50 231 0.0 3.5 0.00 0.00 0.00 62 1017.9
20260501235533 50 0 0.9 3.5 0.00 0.00 0.00 62 1017.9
20260501235037 50 162 0.9 3.5 0.00 0.00 0.00 62 1018.0
20260501234541 50 0 0.0 4.3 0.00 0.00 0.00 63 1018.1
20260501234033 50 179 2.6 4.3 0.00 0.00 0.00 63 1018.0
20260501233533 50 124 0.9 7.8 0.00 0.00 0.00 65 1018.2
20260501233049 50 179 3.5 7.8 0.00 0.00 0.00 65 1018.2
20260501232532 50 157 2.6 5.2 0.00 0.00 0.00 65 1018.2
20260501232032 50 204 1.7 5.2 0.00 0.00 0.00 65 1018.2